Desert Lake Discharge




Date Panel Temperature (degC) Canal Conductivity (mS/m) Canal Flow (cfs) Canal Height (ft) Water Temperature (degC) Air Temperature (degF) Water Balance (pH) Canal Conductivity in micro-Siemens (┬ÁS/cm)
09/01/2017 3.51 116.90 3,513.00
09/02/2017 3.51 116.80 3,507.00
09/03/2017 3.51 116.80 3,513.00
09/04/2017 3.51 116.70 3,507.00
09/05/2017 3.51 116.80 3,512.00
09/06/2017 3.51 116.80 3,512.00
09/07/2017 3.51 116.90 3,512.00
09/08/2017 3.51 116.90 3,512.00
09/09/2017 3.52 117.00 3,518.00
09/10/2017 3.51 117.00 3,513.00
09/11/2017 3.51 116.80 3,513.00
09/12/2017 3.51 116.90 3,513.00
09/13/2017 3.52 117.00 3,518.00
09/14/2017 3.52 117.10 3,523.00
09/15/2017 3.52 117.10 3,522.00
09/16/2017 3.52 117.10 3,518.00
09/17/2017 3.52 117.10 3,523.00
09/18/2017 3.52 117.00 3,518.00
09/19/2017 3.52 117.00 3,517.00
09/20/2017 3.52 117.10 3,518.00
09/21/2017 3.52 117.00 3,517.00
09/22/2017 3.52 117.10 3,523.00
09/23/2017 3.52 117.30 3,523.00
09/24/2017 3.53 117.30 3,527.00
09/25/2017 3.52 117.40 3,523.00
09/26/2017 3.52 117.40 3,523.00
09/27/2017 3.52 117.30 3,523.00
09/28/2017 3.53 117.20 3,527.00
09/29/2017 3.52 117.10 3,518.00
09/30/2017 3.52 117.20 3,522.00
Average 117.04
Maximum 117.40
Minimum 116.70
Total Volume (AF) 6,962.51